FW7487 Weather Reports


Display with metric or nautical units.
time (UTC)temp
F
wind
direction
speed
MPH
gust
MPH
rain 1hr
in
rain 24hr
in
rain mn
in
humidity
%
barometer
mb
20260509153050 64 0 0.0 5.0 0.00 0.03 0.03 97 1013.9
20260509151551 64 0 0.0 3.0 0.00 0.03 0.03 97 1013.9
20260509150052 63 360 1.0 3.0 0.01 0.03 0.03 97 1013.0
20260509144604 62 0 0.0 5.0 0.01 0.03 0.03 97 1014.2
20260509143105 62 360 0.0 3.0 0.01 0.03 0.03 97 1014.8
20260509141550 62 360 1.0 3.0 0.01 0.03 0.03 97 1014.3
20260509140054 61 0 0.0 6.0 0.00 0.02 0.02 96 1014.5
20260509134604 61 360 1.0 4.0 0.00 0.02 0.02 97 1014.1
20260509133050 61 0 0.0 3.0 0.00 0.02 0.02 96 1014.4
20260509131550 61 0 0.0 3.0 0.00 0.02 0.02 96 1014.7
20260509130057 60 0 0.0 3.0 0.01 0.02 0.02 96 1014.4
20260509124549 60 360 0.0 2.0 0.02 0.02 0.02 96 1014.2
20260509123101 60 0 1.0 5.0 0.02 0.02 0.02 96 1014.2
20260509121608 60 360 1.0 5.0 0.02 0.02 0.02 96 1013.3
20260509120049 60 360 1.0 3.0 0.01 0.01 0.01 96 1013.6
20260509114552 60 360 1.0 4.0 0.00 0.00 0.00 96 1013.5
20260509113049 60 360 0.0 2.0 0.00 0.00 0.00 96 1013.4
20260509111559 59 360 0.0 3.0 0.00 0.00 0.00 96 1013.5
20260509110049 59 0 0.0 2.0 0.00 0.00 0.00 96 1013.5
20260509104549 59 0 0.0 2.0 0.00 0.00 0.00 96 1013.4
20260509103101 59 0 0.0 0.0 0.00 0.00 0.00 96 1013.6
20260509101618 59 0 0.0 0.0 0.00 0.00 0.00 96 1013.5
20260509100049 59 0 0.0 0.0 0.00 0.00 0.00 96 1013.4
20260509094546 58 0 0.0 2.0 0.00 0.00 0.00 96 1013.4
20260509093042 58 0 0.0 0.0 0.00 0.00 0.00 96 1013.3
20260509091549 58 0 0.0 1.0 0.00 0.00 0.00 96 1013.2
20260509090057 58 0 0.0 0.0 0.00 0.00 0.00 95 1013.1
20260509084549 58 0 0.0 0.0 0.00 0.00 0.00 95 1013.1
20260509083046 58 0 0.0 0.0 0.00 0.00 0.00 95 1012.8
20260509081550 58 0 0.0 0.0 0.00 0.00 0.00 95 1012.8
20260509080050 59 0 0.0 1.0 0.00 0.00 0.00 95 1012.6
20260509074551 58 0 0.0 0.0 0.00 0.00 0.00 95 1012.9
20260509073056 59 0 0.0 0.0 0.00 0.00 0.00 95 1012.9
20260509071555 59 0 0.0 1.0 0.00 0.00 0.00 94 1013.0
20260509070049 59 0 0.0 0.0 0.00 0.00 0.00 94 1013.2
20260509064551 59 0 0.0 2.0 0.00 0.00 0.00 94 1013.3
20260509063050 59 0 0.0 1.0 0.00 0.00 0.00 93 1013.2
20260509061550 59 0 0.0 1.0 0.00 0.00 0.00 93 1013.6
20260509060049 60 0 0.0 1.0 0.00 0.00 0.00 92 1013.5
20260509054558 60 0 0.0 0.0 0.00 0.00 0.00 92 1014.1
20260509053049 61 0 0.0 1.0 0.00 0.00 0.00 91 1014.0
20260509051542 61 0 0.0 1.0 0.00 0.00 0.00 91 1014.2
20260509050048 61 0 0.0 2.0 0.00 0.00 0.00 91 1014.5
20260509044548 61 0 0.0 0.0 0.00 0.00 0.00 90 1014.5
20260509043044 61 0 0.0 0.0 0.00 0.00 0.00 90 1014.7
20260509041615 62 0 0.0 2.0 0.00 0.00 0.00 90 1014.4
20260509040049 62 0 0.0 1.0 0.00 0.00 0.00 90 1014.7
20260509034548 62 0 0.0 2.0 0.00 0.00 0.00 89 1015.1
20260509033048 62 360 0.0 1.0 0.00 0.00 0.00 88 1014.8
20260509031553 63 0 0.0 3.0 0.00 0.00 0.00 87 1015.1
20260509030046 63 0 0.0 2.0 0.00 0.00 0.00 87 1014.8
20260509024549 63 360 1.0 4.0 0.00 0.00 0.00 88 1014.9
20260509023105 63 0 0.0 3.0 0.00 0.00 0.00 88 1015.3
20260509021548 63 360 0.0 3.0 0.00 0.00 0.00 89 1015.4
20260509020054 63 0 0.0 0.0 0.00 0.00 0.00 88 1015.3
20260509014544 64 0 0.0 1.0 0.00 0.00 0.00 87 1014.8
20260509013054 64 360 1.0 3.0 0.00 0.00 0.00 86 1014.6
20260509011557 64 0 0.0 2.0 0.00 0.00 0.00 86 1014.9
20260509010053 64 360 0.0 2.0 0.00 0.00 0.00 85 1015.3
20260509004551 64 0 0.0 1.0 0.00 0.00 0.00 85 1015.4
20260509003047 64 0 0.0 1.0 0.00 0.00 0.00 84 1015.7
20260509001545 64 360 0.0 1.0 0.00 0.00 0.00 83 1015.8
20260509000042 65 0 0.0 2.0 0.00 0.00 0.00 83 1015.5
20260508234552 65 0 0.0 2.0 0.00 0.00 0.00 81 1015.3
20260508233048 66 360 0.0 2.0 0.00 0.00 0.00 81 1015.7
20260508231547 66 360 1.0 4.0 0.00 0.00 0.00 80 1015.7
20260508230048 66 360 0.0 2.0 0.00 0.00 0.00 79 1015.4
20260508224546 66 360 0.0 3.0 0.00 0.00 0.00 77 1015.0
20260508223051 67 0 0.0 2.0 0.00 0.00 0.00 76 1014.9
20260508221551 67 0 0.0 3.0 0.00 0.00 0.00 76 1015.0
20260508220049 67 0 0.0 4.0 0.00 0.00 0.00 75 1014.8
20260508214547 67 0 0.0 4.0 0.00 0.00 0.00 75 1015.1
20260508213046 67 360 1.0 4.0 0.00 0.00 0.00 73 1015.0
20260508211545 67 360 0.0 3.0 0.00 0.00 0.00 74 1015.5
20260508210048 67 360 0.0 4.0 0.00 0.00 0.00 73 1015.6
20260508204553 67 360 1.0 5.0 0.00 0.00 0.00 73 1015.7
20260508203047 67 360 2.0 5.0 0.00 0.00 0.00 71 1015.5
20260508201548 68 360 1.0 4.0 0.00 0.00 0.00 72 1015.4
20260508200105 67 360 2.0 8.0 0.00 0.00 0.00 72 1015.6
20260508194553 68 360 2.0 5.0 0.00 0.00 0.00 69 1015.8
20260508193130 69 360 1.0 5.0 0.00 0.00 0.00 67 1016.2
20260508191556 68 360 1.0 6.0 0.00 0.00 0.00 69 1016.0
20260508190047 69 360 2.0 6.0 0.00 0.00 0.00 66 1016.0
20260508184551 69 360 2.0 6.0 0.00 0.00 0.00 64 1016.0
20260508183109 69 360 1.0 8.0 0.00 0.00 0.00 63 1016.4
20260508181601 70 360 1.0 5.0 0.00 0.00 0.00 62 1016.6
20260508180050 69 360 1.0 6.0 0.00 0.00 0.00 60 1016.7
20260508174552 70 132 2.0 5.0 0.00 0.00 0.00 59 1017.2
20260508173047 69 55 1.0 5.0 0.00 0.00 0.00 61 1017.0
20260508171545 69 360 1.0 3.0 0.00 0.00 0.00 59 1017.3
20260508170054 68 0 0.0 5.0 0.00 0.00 0.00 61 1017.3
20260508164550 70 141 2.0 6.0 0.00 0.00 0.00 57 1017.0
20260508163050 69 0 2.0 5.0 0.00 0.00 0.00 58 1017.6
20260508161548 69 0 2.0 6.0 0.00 0.00 0.00 56 1017.6
20260508160047 69 113 1.0 6.0 0.00 0.00 0.00 58 1017.9
20260508154606 68 333 1.0 5.0 0.00 0.13 0.00 61 1018.3